SITRO-AIS 6 (CHIRKIN)

Last updated on Sat Aug 15 2026 00:03:45 GMT+0000 (Coordinated Universal Time)

1 57192U 23091AC 26226.58800851 .00005336 00000+0 20466-3 0 9999 2 57192 97.5023 289.8797 0009568 257.0511 102.9659 15.26893589173190
UTC large
Height (km)
Speed (km/s)
/
Latitude / Longitude
Inclination (degrees)
Orbital Period (minutes)
Azimuth
Elevation
Range (km)
Doppler Factor

Next 0 passes for location: London (51.5072 / 0.1276)

No passes found over London.
SITRO-AIS 6 (CHIRKIN)